Lid_Strength_Index
7 11 13 10 9 8 9 10 11 9 7 9 9 8 7 6 6 6 5 5 5 4 3 3 3 2 1 1 1 1 1 1 0 1 1 1 1 1 0 -1 -1 -1 -1 -0
10 13 8 7 8 9 10 11 11 9 8 9 9 9 7 7 7 5 5 5 6 5 4 2 3 3 2 2 1 1 1 1 1 1 1 1 1 0 0 -0 -0 -1 -1 -0
12 9 7 8 9 11 11 11 11 11 9 8 9 10 8 7 7 6 5 5 4 5 5 4 4 4 3 2 2 1 1 1 1 0 0 0 0 0 1 1 0 -0 -1 -0
10 7 9 10 11 10 13 9 9 11 12 15 9 16 10 7 8 7 7 5 5 4 4 3 4 4 4 3 1 1 1 1 1 0 1 1 2 3 2 1 0 0 -0 -0
12 11 10 11 11 9 12 8 10 10 12 13 12 16 11 8 9 8 7 6 5 4 4 3 3 4 4 3 2 2 1 1 1 1 1 1 2 1 1 1 1 1 0 -0
10 7 9 10 8 8 8 10 10 11 13 19 13 13 12 10 8 7 7 6 5 4 4 3 3 2 4 3 2 2 2 1 1 1 1 1 2 2 2 2 2 1 1 0
12 11 9 8 11 9 10 13 18 20 20 18 11 13 12 8 7 7 7 6 5 5 4 4 4 3 3 3 2 2 3 3 1 1 1 1 1 1 2 2 2 1 1 1
16 17 11 9 11 13 13 12 16 21 19 16 12 15 11 7 6 6 6 6 6 5 4 5 5 5 4 4 3 3 4 3 2 1 1 1 1 1 1 1 1 1 1 1
16 16 9 9 8 9 13 15 10 15 15 16 13 11 8 7 7 7 7 7 6 6 6 6 5 5 5 5 5 4 3 3 2 2 1 1 1 1 1 1 1 1 1 1
10 16 11 10 8 8 10 9 15 15 20 19 14 13 12 9 8 7 7 7 7 6 6 6 6 5 5 5 5 5 5 4 2 2 1 1 1 1 1 1 1 1 1 0
8 11 14 11 13 13 12 13 11 11 13 17 17 14 8 8 7 7 6 5 5 5 5 6 6 5 4 4 5 6 6 5 4 2 1 1 1 1 1 1 1 1 1 1
8 11 16 14 10 9 9 11 11 15 17 15 16 14 7 6 7 6 6 6 6 5 5 4 4 3 4 5 5 5 6 6 5 4 3 2 1 1 1 1 1 1 1 1
9 13 17 16 13 11 13 12 11 11 12 16 17 13 8 7 6 6 6 6 6 5 5 5 5 4 4 4 4 5 5 6 6 3 2 2 1 1 1 1 1 1 1 1
7 11 13 16 13 12 14 12 11 12 16 14 14 12 9 7 7 6 6 6 6 5 5 5 5 4 4 4 4 4 4 5 5 6 2 2 2 1 1 1 1 1 1 2
8 14 11 11 10 11 12 12 12 13 13 14 12 11 9 7 6 6 5 6 6 6 5 5 5 5 4 4 3 3 4 4 5 5 5 3 2 1 1 1 1 2 2 2
8 14 11 13 11 11 13 11 11 11 11 11 11 11 7 6 6 6 6 6 6 7 7 7 7 6 6 5 5 3 3 4 5 5 5 5 5 5 4 3 5 6 7 7
11 13 15 16 12 13 15 12 11 11 10 10 13 9 7 7 6 6 6 5 6 7 8 8 8 7 7 6 6 5 3 4 5 5 5 7 7 7 6 7 8 9 8 8
11 12 13 16 15 20 11 9 8 10 9 8 8 8 7 8 8 6 6 8 9 9 9 8 8 8 7 7 6 6 5 4 5 6 6 9 9 9 9 9 10 10 10 10
8 11 14 16 17 13 11 11 10 11 10 8 8 9 10 9 8 8 9 10 10 10 10 9 9 8 8 8 7 8 8 6 6 7 8 10 10 10 10 11 9 9 11 12
9 9 12 15 17 18 12 10 7 7 13 11 11 12 12 11 12 9 11 11 11 11 11 10 10 9 10 9 9 11 10 8 7 8 9 10 10 11 10 10 11 12 13 13
14 13 15 15 16 13 10 10 8 14 14 14 13 14 14 14 13 13 13 12 12 12 12 11 11 11 11 11 12 13 11 10 10 11 11 12 12 12 10 12 13 13 13 13
13 15 15 14 16 17 13 10 12 16 14 15 16 15 16 16 15 15 14 14 13 13 13 13 13 13 12 12 13 14 13 12 13 12 12 12 12 13 12 13 13 13 13 14
13 11 13 12 12 14 15 17 17 17 17 17 17 17 18 18 17 17 17 16 15 14 14 14 15 15 14 13 14 15 14 14 14 13 13 13 13 13 13 13 13 13 13 13
12 13 11 12 14 15 16 17 18 18 18 18 18 18 18 19 18 18 17 17 17 16 16 16 17 18 17 16 16 16 16 17 15 13 13 14 14 13 13 13 13 13 13 13
15 15 13 15 17 15 16 17 19 19 19 19 19 19 19 19 19 18 18 17 17 18 17 18 19 20 20 19 19 18 18 18 17 14 15 14 14 14 15 15 14 15 14 13
20 21 14 14 21 21 18 19 20 21 21 20 21 21 20 20 20 19 19 19 19 19 19 20 21 21 22 21 21 21 21 20 18 16 16 16 16 15 15 15 15 13 13 13